Chamberlain, SD

11:10 PM CDT on April 23, 2017 (GMT -0500)
Chamberlain

Weather History for K9V9 - May, 2013

Change the Weather History Date:

Monday, May 27, 2013

  Actual Average Record
Temperature  
Mean Temperature 65 °F -  
Max Temperature 75 °F 69 °F 93 °F (2006)
Min Temperature 55 °F 47 °F 43 °F (1997)
Growing Degree Days 15 (Base 50)    
Moisture  
Dew Point 55 °F    
Average Humidity 76    
Maximum Humidity 94    
Minimum Humidity 53    
Precipitation  
Precipitation 0.02 in - - ()
Sea Level Pressure  
Sea Level Pressure 29.77 in    
Wind  
Wind Speed 11 mph (ESE)    
Max Wind Speed 45 mph    
Max Gust Speed 63 mph    
Averages and records for this station are not official NWS values.
T = Trace of Precipitation, MM = Missing Value Source: NWS Daily Summary

Daily Weather History Graph

Daily Weather History Graph

Search for Another Location

Airport or City:

Trip Planner

Search our weather history database for the weather conditions in past years. The results will help you decide how hot, cold, wet, or windy it might be!

Date:

Astronomy

May. 27, 2013 Rise Set
Actual Time 6:00 AM CDT 9:08 PM CDT
Civil Twilight 5:26 AM CDT 9:43 PM CDT
Nautical Twilight 4:41 AM CDT 10:28 PM CDT
Astronomical Twilight 3:48 AM CDT 11:22 PM CDT
Moon 11:46 PM CDT (5/27) 8:41 AM CDT (5/27)
Length of Visible Light 16h 17m
Length of Day
15h 07m
Waning Gibbous, 91% of the Moon is Illuminated
May 27
Waning Gibbous
May 31
Last Quarter
Jun 8
New
Jun 16
First Quarter
Jun 23
Full

Hourly Weather History & Observations

Time (CDT) Temp. Dew Point Humidity Pressure Visibility Wind Dir Wind Speed Gust Speed Precip Events Conditions
12:52 AM 55.9 °F 53.1 °F 90% 29.88 in - East 9.2 mph - N/A   Unknown
1:52 AM 55.9 °F 53.1 °F 90% 29.87 in - ENE 5.8 mph - N/A   Unknown
2:52 AM 55.9 °F 53.1 °F 90% 29.84 in - ENE 8.1 mph - N/A   Unknown
3:52 AM 55.0 °F 52.0 °F 89% 29.81 in - East 12.7 mph - N/A   Unknown
4:52 AM 55.0 °F 52.0 °F 89% 29.80 in - East 11.5 mph - N/A   Unknown
5:52 AM 55.0 °F 52.0 °F 89% 29.83 in - Calm Calm - N/A   Unknown
6:52 AM 55.9 °F 53.1 °F 90% 29.86 in - Calm Calm - N/A   Unknown
7:52 AM 55.9 °F 53.1 °F 90% 29.84 in - ESE 4.6 mph - N/A   Unknown
8:52 AM 59.0 °F 55.0 °F 87% 29.80 in - East 6.9 mph - N/A   Unknown
9:52 AM 62.1 °F 55.9 °F 80% 29.80 in - ESE 9.2 mph - N/A   Unknown
10:52 AM 66.0 °F 55.9 °F 70% 29.77 in - SE 3.5 mph - N/A   Unknown
11:52 AM 70.0 °F 55.9 °F 61% 29.77 in - SE 10.4 mph - N/A   Unknown
12:52 PM 70.0 °F 55.9 °F 61% 29.80 in - ESE 10.4 mph 21.9 mph N/A   Unknown
1:52 PM 70.0 °F 57.0 °F 63% 29.79 in - ESE 11.5 mph - N/A   Unknown
2:52 PM 73.9 °F 57.9 °F 57% 29.75 in - SE 15.0 mph - N/A   Unknown
3:52 PM 73.0 °F 57.9 °F 59% 29.73 in - ESE 15.0 mph 24.2 mph N/A   Unknown
4:52 PM 75.0 °F 57.0 °F 53% 29.70 in - SE 19.6 mph 25.3 mph N/A   Unknown
5:52 PM 73.9 °F 57.0 °F 55% 29.68 in - ESE 17.3 mph 24.2 mph N/A   Unknown
6:52 PM 73.0 °F 57.0 °F 57% 29.65 in - ESE 19.6 mph 26.5 mph N/A   Unknown
7:52 PM 71.1 °F 60.1 °F 68% 29.64 in - ESE 20.7 mph 27.6 mph N/A   Unknown
8:52 PM 66.9 °F 59.0 °F 76% 29.69 in - ESE 15.0 mph - N/A   Unknown
9:52 PM 64.9 °F 57.9 °F 78% 29.66 in - ESE 16.1 mph - N/A   Unknown
10:52 PM 64.0 °F 57.0 °F 78% 29.68 in - ESE 13.8 mph - N/A   Unknown
11:52 PM 57.9 °F 55.0 °F 90% 29.78 in - West 34.5 mph 50.6 mph 0.02 in   Unknown
11:58 PM 55.4 °F 53.6 °F 94% 29.78 in - NW 44.9 mph 63.3 mph 0.23 in   Unknown